sat.trackr.live / text

‹ back to catalog

STARLINK-36188

NORAD 67122 · 2025-299W

PAYLOAD ACTIVE UNKNOWN

§ Identity

Operator
Country
US
Launch date
2025-12-15
Launch site
AFETR
Launch vehicle
Mass (kg)
RCS (m²)

Purposes: comms

External: N2YO · Heavens-Above · Gunter

§ Orbital elements

Epoch: 2026-05-25T04:36:29.804832Z

Period
94.27 min
Inclination
43.0042°
Eccentricity
0.0001856
Mean motion
15.27591036 rev/d
Perigee alt
481.7 km
Apogee alt
484.3 km
Semi-major
6,861.2 km
B*
4.9938e-4
RAAN
97.1717°
Arg perigee
259.1001°
Mean anomaly
100.9642°
Rev number
2,481

§ Raw data

STARLINK-361881 67122U 25299W   26145.19201163  .00013510  00000+0  49938-3 0  99912 67122  43.0042  97.1717 0001856 259.1001 100.9642 15.27591036 24819

JSON: /api/v1/satellites/67122 · /tle

For live sub-satellite position, see the globe view (requires WebGL).

§ Visibility from observer

Set your observer location to see the next 7 days of passes ≥ 10°. The values pass through the URL so the page stays shareable.

No JS? Fill the form by hand. The geolocation button needs JavaScript.